* Astronomy

Members Login
Username 
 
Password 
    Remember Me  
Post Info TOPIC: TacSat-4 Satellite


L

Posts: 131433
Date:
TacSat-4 Satellite
Permalink  
 


TACSAT 4
1 37818U 11052A   11271.54178048 -.00000029  00000-0  00000+0 0    43
2 37818 063.6387 320.1733 4432752 210.8911 112.0757 06.12351350    54

Period:    230.98 minutes
Inclination: 63.63° degrees.
Apogee: 11843 km
Perigee: 341 km

MINOTAUR 4 RB
1 37819U 11052B   11271.36464577  .00009707  27053-6  10000-3 0    60
2 37819 063.4234 320.1073 4699782 210.9203 110.1953 06.29991756    48

Period:    228.59 minutes
Inclination: 63.42° degrees.
Apogee: 11826 km
Perigee: 186 km



__________________


L

Posts: 131433
Date:
Permalink  
 

 Launch of TACSAT-4 on Minotaur IV Rocket



__________________


L

Posts: 131433
Date:
Permalink  
 

Target orbit

Inclination: 63.435 degrees.
Perigee: 185 km
Apogee: 12049 km



__________________


L

Posts: 131433
Date:
Permalink  
 

Satellite separation confirmed by Santiago, Chile, tracking station.

__________________


L

Posts: 131433
Date:
Permalink  
 

Awaiting confirmation of satellite deployment.

__________________


L

Posts: 131433
Date:
Permalink  
 

T plus 27 minutes 48 seconds:      TacSat 4 Separation



__________________


L

Posts: 131433
Date:
Permalink  
 

Stage 3 Separation.

Stage 4 ignition



__________________


L

Posts: 131433
Date:
Permalink  
 

tacsat4d.jpg



__________________


L

Posts: 131433
Date:
Permalink  
 

Stage 3 ignition confirmed



__________________


L

Posts: 131433
Date:
Permalink  
 

T plus 2 minutes 6 seconds: Stage 2 ignition



Attachments
__________________
1 2 3  >  Last»  | Page of 3  sorted by
Quick Reply

Please log in to post quick replies.



Create your own FREE Forum
Report Abuse
Powered by ActiveBoard